FW5708 Weather Reports


time (UTC)temp
C
wind
direction
speed
KPH
gust
KPH
rain 1hr
cm
rain 24hr
cm
rain mn
cm
humidity
%
barometer
mb
20260906124501 20 288 0.0 0.0 0.00 0.00 0.00 99 1012.0
20260906124001 20 288 0.0 0.0 0.00 0.00 0.00 99 1011.9
20260906123502 20 311 1.6 3.2 0.00 0.00 0.00 99 1011.8
20260906123002 20 274 0.0 0.0 0.00 0.00 0.00 99 1012.0
20260906122502 20 283 0.0 0.0 0.00 0.00 0.00 99 1012.1
20260906122002 20 278 0.0 0.0 0.00 0.00 0.00 99 1011.8
20260906120002 19 281 0.0 0.0 0.00 0.00 0.00 99 1011.4
20260906115502 19 279 0.0 0.0 0.00 0.00 0.00 99 1011.3
20260906115002 19 274 0.0 0.0 0.00 0.00 0.00 99 1011.3
20260906114502 19 280 0.0 0.0 0.00 0.00 0.00 99 1011.1
20260906113502 19 278 0.0 0.0 0.00 0.00 0.00 99 1011.0
20260906113002 19 287 0.0 0.0 0.00 0.00 0.00 99 1010.9
20260906112502 19 290 0.0 0.0 0.00 0.00 0.00 99 1010.9
20260906111502 19 283 0.0 0.0 0.00 0.00 0.00 99 1010.8
20260906111002 19 289 0.0 0.0 0.00 0.00 0.00 99 1010.8
20260906110501 19 280 0.0 0.0 0.00 0.00 0.00 99 1010.8
20260906105502 19 297 0.0 0.0 0.00 0.00 0.00 99 1010.7
20260906105002 19 290 1.6 3.2 0.00 0.00 0.00 99 1010.6
20260906104502 19 277 0.0 0.0 0.00 0.00 0.00 99 1010.9
20260906104001 19 300 0.0 0.0 0.00 0.00 0.00 99 1010.6
20260906103501 19 278 0.0 0.0 0.00 0.00 0.00 99 1010.4
20260906103002 19 297 0.0 0.0 0.00 0.00 0.00 99 1010.4
20260906102502 19 289 1.6 3.2 0.00 0.00 0.00 99 1010.4
20260906102002 19 295 1.6 3.2 0.00 0.00 0.00 99 1010.3
20260906101501 20 289 0.0 0.0 0.00 0.00 0.00 99 1010.3
20260906101002 20 285 0.0 0.0 0.00 0.00 0.00 99 1010.5
20260906100502 20 284 0.0 0.0 0.00 0.00 0.00 99 1010.3
20260906100002 20 280 0.0 0.0 0.00 0.00 0.00 99 1010.3
20260906095503 20 291 1.6 3.2 0.00 0.00 0.00 99 1010.1
20260906095002 20 290 0.0 0.0 0.00 0.00 0.00 99 1010.1
20260906094501 19 289 0.0 0.0 0.00 0.00 0.00 99 1010.1
20260906093502 20 279 0.0 0.0 0.00 0.00 0.00 99 1010.1
20260906093002 20 280 0.0 0.0 0.00 0.00 0.00 99 1010.3
20260906092502 20 279 0.0 0.0 0.00 0.00 0.00 99 1010.3
20260906092002 20 281 0.0 0.0 0.00 0.00 0.00 99 1010.4
20260906091501 20 310 0.0 0.0 0.00 0.00 0.00 99 1010.2
20260906091002 20 285 0.0 0.0 0.00 0.00 0.00 99 1010.0
20260906090502 20 285 0.0 0.0 0.00 0.00 0.00 99 1010.0
20260906090002 20 287 0.0 0.0 0.00 0.00 0.00 99 1010.2
20260906085502 20 286 0.0 0.0 0.00 0.00 0.00 99 1010.3
20260906085001 20 281 0.0 0.0 0.00 0.00 0.00 99 1009.9
20260906084502 20 283 0.0 0.0 0.00 0.00 0.00 99 1010.0
20260906083502 20 284 0.0 0.0 0.00 0.00 0.00 99 1010.0
20260906083002 20 283 0.0 0.0 0.00 0.00 0.00 99 1009.9
20260906082501 20 280 0.0 0.0 0.00 0.00 0.00 99 1009.9
20260906082002 20 282 0.0 0.0 0.00 0.00 0.00 99 1009.9
20260906081502 20 283 0.0 0.0 0.00 0.00 0.00 99 1010.1
20260906081002 20 289 0.0 0.0 0.00 0.00 0.00 99 1010.2
20260906080502 20 280 0.0 0.0 0.00 0.00 0.00 99 1010.3
20260906080002 20 279 0.0 0.0 0.00 0.00 0.00 99 1010.3
20260906075501 20 280 0.0 0.0 0.00 0.00 0.00 99 1010.2
20260906075001 20 285 0.0 0.0 0.00 0.00 0.00 99 1010.4
20260906074501 20 280 0.0 0.0 0.00 0.00 0.00 99 1010.3
20260906074002 20 278 0.0 0.0 0.00 0.00 0.00 99 1010.1
20260906073002 20 283 0.0 0.0 0.00 0.00 0.00 99 1010.1
20260906072502 20 279 0.0 0.0 0.00 0.00 0.00 99 1010.2
20260906072002 20 288 0.0 0.0 0.00 0.00 0.00 99 1010.3
20260906071502 20 290 0.0 0.0 0.00 0.00 0.00 99 1010.2
20260906071002 21 281 0.0 0.0 0.00 0.00 0.00 98 1010.2
20260906070502 21 284 0.0 0.0 0.00 0.00 0.00 98 1010.4
20260906070002 21 286 0.0 0.0 0.00 0.00 0.00 98 1010.0
20260906065502 21 287 0.0 0.0 0.00 0.00 0.00 98 1010.4
20260906065002 21 306 0.0 0.0 0.00 0.00 0.00 98 1010.3
20260906064002 21 310 0.0 0.0 0.00 0.00 0.00 98 1010.3
20260906063002 21 289 0.0 0.0 0.00 0.00 0.00 97 1010.2
20260906062502 21 297 1.6 3.2 0.00 0.00 0.00 97 1010.3
20260906062002 21 281 1.6 3.2 0.00 0.00 0.00 96 1010.0
20260906061502 21 289 0.0 0.0 0.00 0.00 0.00 96 1010.0
20260906061002 21 306 0.0 0.0 0.00 0.00 0.00 96 1010.2
20260906060502 21 278 1.6 3.2 0.00 0.00 0.00 96 1010.2
20260906060002 21 1 3.2 4.8 0.00 0.00 0.00 95 1010.2
20260906055502 21 335 3.2 4.8 0.00 0.00 0.00 95 1010.3
20260906055003 21 293 3.2 3.2 0.00 0.00 0.00 95 1010.1
20260906054002 21 339 1.6 4.8 0.00 0.00 0.00 95 1010.5
20260906053502 21 338 3.2 4.8 0.00 0.00 0.00 94 1010.3
20260906053002 22 285 0.0 0.0 0.00 0.00 0.00 94 1010.4
20260906052501 22 280 1.6 3.2 0.00 0.00 0.00 94 1010.1
20260906052001 22 288 1.6 3.2 0.00 0.00 0.00 94 1010.2
20260906051502 22 299 3.2 4.8 0.00 0.00 0.00 94 1009.9
20260906050502 22 277 0.0 0.0 0.00 0.00 0.00 93 1010.0
20260906050002 22 292 1.6 3.2 0.00 0.00 0.00 93 1010.2
20260906045502 22 283 0.0 0.0 0.00 0.00 0.00 93 1010.1
20260906045003 22 7 3.2 6.4 0.00 0.00 0.00 93 1010.0
20260906044501 22 295 3.2 4.8 0.00 0.00 0.00 93 1010.1
20260906044002 22 305 1.6 3.2 0.00 0.00 0.00 94 1009.8
20260906043002 22 326 3.2 4.8 0.00 0.00 0.00 94 1009.8
20260906042502 22 283 1.6 3.2 0.00 0.00 0.00 94 1009.7
20260906042002 22 317 1.6 4.8 0.00 0.00 0.00 93 1009.5
20260906041502 22 325 3.2 4.8 0.00 0.00 0.00 94 1009.3
20260906041002 22 284 1.6 3.2 0.00 0.00 0.00 94 1009.3
20260906040502 22 333 3.2 4.8 0.00 0.00 0.00 94 1009.2
20260906040002 22 308 3.2 4.8 0.00 0.00 0.00 94 1009.0
20260906035502 22 279 1.6 3.2 0.00 0.00 0.00 94 1009.3
20260906035001 21 301 3.2 4.8 0.00 0.00 0.00 94 1009.5
20260906034002 22 8 4.8 6.4 0.00 0.00 0.00 93 1009.1
20260906033502 22 313 1.6 4.8 0.00 0.00 0.00 93 1009.1
20260906033002 22 298 3.2 6.4 0.00 0.00 0.00 93 1008.9
20260906032502 22 46 4.8 6.4 0.00 0.00 0.00 93 1008.9
20260906032001 22 53 6.4 8.0 0.00 0.00 0.00 93 1009.1
20260906031501 22 56 8.0 9.7 0.00 0.00 0.00 93 1009.1
20260906031002 22 67 6.4 8.0 0.00 0.00 0.00 93 1009.1
20260906030502 22 332 3.2 4.8 0.00 0.00 0.00 92 1009.4
20260906030002 22 85 6.4 8.0 0.00 0.00 0.00 92 1009.1
20260906025502 22 307 4.8 6.4 0.00 0.00 0.00 92 1009.1
20260906025002 22 43 6.4 11.3 0.00 0.00 0.00 92 1009.2
20260906024502 22 337 4.8 6.4 0.00 0.00 0.00 92 1009.2
20260906024007 22 322 4.8 4.8 0.00 0.00 0.00 92 1009.4
20260906023502 22 51 3.2 4.8 0.00 0.00 0.00 92 1009.2
20260906022502 22 265 3.2 4.8 0.00 0.00 0.00 92 1009.1
20260906022002 22 281 3.2 4.8 0.00 0.00 0.00 92 1009.1
20260906021501 22 279 0.0 0.0 0.00 0.00 0.00 92 1009.0
20260906021001 22 288 3.2 4.8 0.00 0.00 0.00 92 1008.9
20260906020502 22 80 4.8 6.4 0.00 0.00 0.00 92 1009.2
20260906020002 22 306 3.2 4.8 0.00 0.00 0.00 92 1009.1
20260906015503 22 12 4.8 6.4 0.00 0.00 0.00 92 1009.1
20260906015001 22 309 1.6 4.8 0.00 0.00 0.00 92 1009.0
20260906014502 22 313 1.6 3.2 0.00 0.00 0.00 91 1009.3
20260906014002 22 35 4.8 8.0 0.00 0.00 0.00 91 1009.1
20260906013502 22 291 3.2 4.8 0.00 0.00 0.00 91 1009.3
20260906013002 22 303 3.2 4.8 0.00 0.00 0.00 92 1009.3
20260906012501 22 352 1.6 4.8 0.00 0.00 0.00 92 1009.2
20260906011502 22 140 3.2 6.4 0.00 0.00 0.00 92 1009.0
20260906010002 22 25 6.4 8.0 0.00 0.00 0.00 91 1009.0
20260906005501 22 302 3.2 4.8 0.00 0.00 0.00 90 1009.1
20260906005001 22 51 4.8 6.4 0.00 0.00 0.00 90 1008.9
20260906004502 22 358 3.2 4.8 0.00 0.00 0.00 90 1008.8
20260906004001 22 5 4.8 6.4 0.00 0.00 0.00 90 1009.1
20260906003002 22 288 1.6 4.8 0.00 0.00 0.00 91 1008.9
20260906002501 22 100 6.4 9.7 0.00 0.00 0.00 92 1008.7
20260906002001 22 342 4.8 6.4 0.00 0.00 0.00 92 1008.9
20260906001501 22 328 3.2 4.8 0.00 0.00 0.00 93 1008.5
20260906000502 22 173 3.2 4.8 0.00 0.00 0.00 93 1008.6
20260906000004 22 301 3.2 4.8 0.00 0.00 0.00 92 1008.4
20260905235002 22 37 6.4 9.7 0.00 0.00 0.00 92 1008.5
20260905234502 22 14 4.8 6.4 0.00 0.00 0.00 91 1008.7
20260905234002 23 319 1.6 4.8 0.00 0.00 0.00 91 1008.6
20260905233502 23 24 4.8 6.4 0.00 0.00 0.00 91 1008.4
20260905233002 23 75 4.8 8.0 0.00 0.00 0.00 91 1008.4
20260905232502 23 316 3.2 4.8 0.00 0.00 0.00 90 1008.4
20260905232002 23 0 6.4 8.0 0.00 0.00 0.00 89 1008.2
20260905231502 24 44 4.8 4.8 0.00 0.00 0.00 87 1008.2
20260905231002 25 66 6.4 8.0 0.00 0.00 0.00 87 1008.1
20260905230502 25 296 3.2 4.8 0.00 0.00 0.00 87 1008.2
20260905230001 25 121 3.2 6.4 0.00 0.00 0.00 86 1007.8
20260905225502 25 286 1.6 4.8 0.00 0.00 0.00 85 1007.9
20260905225001 25 90 4.8 6.4 0.00 0.00 0.00 86 1007.8
20260905224001 25 69 4.8 6.4 0.00 0.00 0.00 84 1008.0
20260905223501 26 340 1.6 3.2 0.00 0.00 0.00 84 1008.0
20260905222501 26 326 6.4 8.0 0.00 0.00 0.00 83 1007.7
20260905222002 27 328 3.2 4.8 0.00 0.00 0.00 81 1007.7
20260905221502 26 319 3.2 6.4 0.00 0.00 0.00 81 1007.6
20260905221002 27 281 3.2 6.4 0.00 0.00 0.00 81 1007.7
20260905220502 26 292 4.8 6.4 0.00 0.00 0.00 82 1007.7
20260905220002 26 57 1.6 3.2 0.00 0.00 0.00 82 1007.7
20260905215002 27 76 4.8 8.0 0.00 0.00 0.00 79 1007.4
20260905214502 27 307 1.6 3.2 0.00 0.00 0.00 79 1007.6
20260905214002 27 309 1.6 4.8 0.00 0.00 0.00 78 1007.6
20260905213502 27 55 8.0 9.7 0.00 0.00 0.00 76 1007.7
20260905212002 27 339 1.6 3.2 0.00 0.00 0.00 80 1007.5
20260905211002 26 305 1.6 3.2 0.00 0.00 0.00 81 1007.7
20260905210502 26 316 1.6 3.2 0.00 0.00 0.00 81 1007.6
20260905210002 27 266 3.2 4.8 0.00 0.00 0.00 81 1007.5
20260905205502 27 272 1.6 3.2 0.00 0.00 0.00 78 1007.7
20260905205002 26 359 3.2 4.8 0.00 0.00 0.00 81 1007.7
20260905204502 26 359 3.2 4.8 0.00 0.00 0.00 81 1007.7
20260905204002 27 308 3.2 4.8 0.00 0.00 0.00 80 1007.7
20260905203502 27 71 4.8 6.4 0.00 0.00 0.00 80 1007.9
20260905203002 26 54 6.4 8.0 0.00 0.00 0.00 81 1007.7
20260905202502 27 115 3.2 6.4 0.00 0.00 0.00 81 1007.8
20260905202002 26 87 3.2 6.4 0.00 0.00 0.00 81 1008.0
20260905201002 26 350 1.6 3.2 0.00 0.00 0.00 85 1007.9
20260905200502 26 310 4.8 6.4 0.00 0.00 0.00 85 1007.9
20260905200002 26 319 1.6 3.2 0.00 0.00 0.00 86 1007.9
20260905195502 26 315 1.6 4.8 0.00 0.00 0.00 84 1007.9
20260905195002 26 316 1.6 3.2 0.00 0.00 0.00 85 1007.9
20260905194502 26 328 3.2 4.8 0.00 0.00 0.00 85 1008.0
20260905194002 26 5 4.8 6.4 0.00 0.00 0.00 85 1008.1
20260905193502 26 293 3.2 4.8 0.00 0.00 0.00 85 1007.9
20260905193002 26 301 3.2 4.8 0.00 0.00 0.00 86 1008.1
20260905192501 25 292 1.6 3.2 0.00 0.00 0.00 86 1008.3
20260905192001 26 353 3.2 4.8 0.00 0.00 0.00 85 1008.1
20260905191502 26 288 1.6 4.8 0.00 0.00 0.00 85 1008.2
20260905191002 26 347 3.2 6.4 0.00 0.00 0.00 85 1008.3
20260905190502 26 39 1.6 3.2 0.00 0.00 0.00 84 1008.1
20260905190001 26 318 3.2 4.8 0.00 0.00 0.00 84 1008.0
20260905185501 26 307 1.6 3.2 0.00 0.00 0.00 86 1008.3
20260905185001 26 6 1.6 3.2 0.00 0.00 0.00 85 1008.2
20260905184501 26 294 1.6 3.2 0.00 0.00 0.00 85 1008.1
20260905184002 26 321 3.2 4.8 0.00 0.00 0.00 85 1008.2
20260905183501 26 300 1.6 3.2 0.00 0.00 0.00 84 1008.1
20260905182001 26 319 1.6 3.2 0.00 0.00 0.00 84 1008.3
20260905181501 26 284 3.2 4.8 0.00 0.00 0.00 85 1008.3
20260905181001 26 340 4.8 6.4 0.00 0.00 0.00 84 1008.1
20260905180502 26 273 3.2 4.8 0.00 0.00 0.00 84 1008.3
20260905180002 27 311 1.6 3.2 0.00 0.00 0.00 84 1008.0
20260905175502 26 309 3.2 6.4 0.00 0.00 0.00 83 1008.3
20260905175002 26 269 3.2 6.4 0.00 0.00 0.00 84 1008.1
20260905174502 26 315 1.6 3.2 0.00 0.00 0.00 84 1007.9
20260905174002 27 285 4.8 8.0 0.00 0.00 0.00 83 1008.1
20260905173501 27 311 1.6 3.2 0.00 0.00 0.00 81 1008.0
20260905173002 27 26 3.2 4.8 0.00 0.00 0.00 80 1008.2
20260905172502 28 35 6.4 9.7 0.00 0.00 0.00 79 1008.2
20260905172002 27 341 3.2 6.4 0.00 0.00 0.00 81 1008.0
20260905171502 27 328 3.2 6.4 0.00 0.00 0.00 82 1008.2
20260905171003 27 275 1.6 3.2 0.00 0.00 0.00 82 1008.1
20260905170502 27 303 3.2 4.8 0.00 0.00 0.00 81 1008.3
20260905165501 27 321 3.2 3.2 0.00 0.00 0.00 84 1008.3
20260905165001 27 298 4.8 6.4 0.00 0.00 0.00 83 1008.3
20260905164501 27 53 9.7 11.3 0.00 0.00 0.00 83 1008.4
20260905164002 27 37 6.4 11.3 0.00 0.00 0.00 82 1008.3
20260905161001 28 320 3.2 4.8 0.00 0.00 0.00 80 1008.0
20260905160002 28 320 3.2 4.8 0.00 0.00 0.00 80 1008.1
20260905154502 27 68 4.8 6.4 0.00 0.00 0.00 82 1007.8
20260905154002 27 269 0.0 0.0 0.00 0.00 0.00 83 1008.0
20260905153002 27 308 1.6 3.2 0.00 0.00 0.00 83 1007.8
20260905151502 27 95 6.4 8.0 0.00 0.00 0.00 83 1007.8
20260905145502 26 196 1.6 8.0 0.00 0.00 0.00 87 1007.6
20260905145002 26 196 1.6 8.0 0.00 0.00 0.00 87 1007.5
20260905144502 26 196 1.6 8.0 0.00 0.00 0.00 87 1007.4
20260905144002 26 273 6.4 8.0 0.00 0.00 0.00 87 1007.5
20260905143502 26 63 3.2 6.4 0.00 0.00 0.00 87 1007.7
20260905143002 26 78 4.8 4.8 0.00 0.00 0.00 85 1007.4
20260905142502 26 352 6.4 8.0 0.00 0.00 0.00 87 1007.5
20260905142001 26 354 3.2 4.8 0.00 0.00 0.00 86 1007.5
20260905141503 25 326 3.2 4.8 0.00 0.00 0.00 87 1007.6
20260905141001 25 50 1.6 4.8 0.00 0.00 0.00 88 1007.5
20260905140502 25 2 3.2 6.4 0.00 0.00 0.00 88 1007.5
20260905140002 26 107 4.8 6.4 0.00 0.00 0.00 88 1007.3
20260905135502 25 265 1.6 3.2 0.00 0.00 0.00 92 1007.2
20260905135002 25 294 1.6 3.2 0.00 0.00 0.00 92 1007.3
20260905134502 23 273 0.0 0.0 0.00 0.00 0.00 96 1007.3
20260905134002 23 35 3.2 4.8 0.00 0.00 0.00 97 1007.5
20260905133502 23 46 9.7 14.5 0.00 0.00 0.00 97 1007.2
20260905133002 23 59 4.8 6.4 0.00 0.00 0.00 98 1007.4
20260905132502 23 47 3.2 6.4 0.00 0.00 0.00 98 1007.7
20260905132002 23 60 4.8 8.0 0.00 0.00 0.00 98 1007.8
20260905131502 23 21 3.2 4.8 0.00 0.00 0.00 98 1007.5
20260905131001 23 310 3.2 4.8 0.00 0.00 0.00 98 1007.5
20260905130002 23 311 0.0 0.0 0.00 0.00 0.00 99 1007.1
20260905125502 23 302 3.2 4.8 0.00 0.00 0.00 99 1007.0
20260905125002 23 34 1.6 3.2 0.00 0.00 0.00 99 1006.8